www.pogodaiklimat.ru

Погода и климат >> Архив погоды >> Кувейт >> Failaka Island


ПОГОДА в Failaka Island

  • Прогноз погоды в Failaka Island
  • Монитор погоды в Failaka Island
  • Климат города

АРХИВ ПОГОДЫ в Failaka Island

Время (UTC), дата Ветер
(напр.,м/с)
 
Видим.   Явления Облачность Т
(С)
Тd
(С)
f
(%)
Тe
(С)
Тes
(С)
Комфортность P
(гПа)
Po
(гПа)
Тmin
(С)
Tmax
(С)
R
(мм)
R24
(мм)
S
(см)
21 4.12 ЮВ 3 н/о н/о +17.6 +14.3 81 +18 +18 1016.6 1017.0 +14.1 +18.1
00 5.12 В 2-3
{4}
н/о н/о +18.8 +15.4 81 +20 +20 1016.2 1016.0
03 5.12 В 3-4
{4}
н/о н/о +18.8 +16.1 84 +20 +20 1016.6 1017.0
06 5.12 Ю 3-4
{5}
н/о н/о +21.6 +19.4 87 +27 +27 душно 1017.7 1018.0
09 5.12 Ю 3-3
{6}
н/о н/о +22.8 +19.6 82 +29 +29 очень
душно
1016.7 1017.0
15 5.12 В 2-3
{6}
н/о н/о +21.3 +19.8 91 +26 +26 душно 1014.8 1015.0
18 5.12 В 3-3
{6}
н/о н/о +20.3 +18.9 92 +24 +24 комфорт 1014.2 1014.0
21 5.12 Ю 4 н/о н/о +21.0 +18.9 88 +26 +26 душно 1012.7 1013.0 +17.5 +24.0
00 6.12 ЮВ 3-4
{7}
н/о н/о +20.6 +19.0 91 +25 +25 комфорт 1011.5 1012.0
03 6.12 ЮВ 3-4
{6}
н/о н/о +20.8 +19.0 89 +26 +26 душно 1011.5 1012.0
06 6.12 ЮВ 5-7
{7}
н/о н/о +23.0 +18.7 77 +29 +29 очень
душно
1011.8 1012.0
09 6.12 ЮВ 7-11
{11}
н/о н/о +23.8 +19.7 78 +29 +29 душно 1009.1 1009.0
12 6.12 Ю 6-9
{12}
н/о н/о +23.2 +18.9 77 +29 +29 душно 1008.0 1008.0
15 6.12 Ю 5-7
{10}
н/о н/о +22.0 +18.2 79 +27 +27 душно 1009.3 1009.0
18 6.12 СЗ 6-8
{10}
н/о н/о +20.1 +15.3 74 +22 +22 комфорт 1011.7 1012.0
21 6.12 СЗ 4 н/о н/о +17.8 +14.4 80 +18 +18 1012.2 1012.0 +17.6 +24.1
00 7.12 С 4-6
{7}
н/о н/о +17.5 +13.1 75 +17 +17 1012.8 1013.0
03 7.12 СВ 2-3
{6}
н/о н/о +17.0 +14.6 86 +17 +17 1014.1 1014.0
06 7.12 З 3-4
{6}
н/о н/о +19.0 +15.9 82 +21 +21 комфорт 1016.2 1016.0
09 7.12 ЮЗ 3-4
{5}
н/о н/о +21.0 +14.5 66 +24 +24 комфорт 1015.2 1015.0
12 7.12 СЗ 2-3
{6}
н/о н/о +21.3 +13.6 61 +24 +24 комфорт 1014.2 1014.0
15 7.12 ЮЗ 1-1
{3}
н/о н/о +19.1 +12.8 67 +22 +22 комфорт 1015.0 1015.0
18 7.12 Ю 2-3
{3}
н/о н/о +18.6 +15.2 81 +20 +20 1016.2 1016.0
21 7.12 З 1 н/о н/о +17.1 +15.7 91 +19 +19 1016.3 1016.0 +15.9 +22.0
00 8.12 В 2-3
{3}
н/о н/о +18.0 +13.6 75 +19 +19 1015.8 1016.0
03 8.12 штиль 0
{2}
н/о н/о +16.5 +13.9 85 +16 +16 1017.0 1017.0
06 8.12 Ю 3-4
{4}
н/о н/о +21.1 +16.8 76 +25 +25 комфорт 1018.6 1019.0
09 8.12 Ю 4-6
{6}
н/о н/о +22.7 +12.4 52 +25 +25 комфорт 1017.9 1018.0
12 8.12 В 4-6
{6}
н/о н/о +22.4 +12.8 55 +25 +25 комфорт 1016.9 1017.0
15 8.12 В 5-6
{7}
н/о н/о +20.3 +14.7 70 +23 +23 комфорт 1017.8 1018.0
18 8.12 В 5-6
{7}
н/о н/о +19.6 +16.3 81 +22 +22 комфорт 1019.0 1019.0
21 8.12 В 3 н/о н/о +19.1 +15.9 82 +21 +21 комфорт 1018.6 1019.0 +16.0 +23.4
00 9.12 В 4-5
{6}
н/о н/о +19.0 +16.1 83 +20 +20 1018.2 1018.0
03 9.12 В 4-5
{5}
н/о н/о +18.8 +15.5 81 +20 +20 1018.6 1019.0
06 9.12 В 2-3
{5}
н/о н/о +21.5 +14.0 62 +24 +24 комфорт 1020.3 1020.0
09 9.12 СВ 2-3
{4}
н/о н/о +22.0 +15.2 65 +26 +26 душно 1019.1 1019.0
12 9.12 СВ 2-3
{4}
н/о н/о +21.3 +14.4 65 +24 +24 комфорт 1018.1 1018.0
15 9.12 СВ 1-3
{4}
н/о н/о +19.9 +14.6 72 +23 +23 комфорт 1018.6 1019.0
18 9.12 СВ 1-1
{4}
н/о н/о +19.3 +15.4 78 +22 +22 комфорт 1019.2 1019.0
21 9.12 СВ 2 н/о н/о +19.3 +13.5 69 +21 +21 комфорт 1018.5 1019.0 +18.2 +23.2
00 10.12 С 3-3
{4}
н/о н/о +18.2 +14.2 77 +19 +19 1018.2 1018.0
03 10.12 С 3-4
{6}
н/о н/о +17.6 +13.3 76 +18 +18 1017.7 1018.0
06 10.12 С 4-5
{6}
н/о н/о +19.2 +14.1 72 +20 +20 1019.2 1019.0
09 10.12 С 4-5
{7}
н/о н/о +20.4 +13.1 63 +23 +23 комфорт 1017.7 1018.0
12 10.12 С 3-4
{7}
н/о н/о +21.2 +13.3 61 +24 +24 комфорт 1017.0 1017.0
15 10.12 С 2-2
{4}
н/о н/о +18.8 +15.1 79 +21 +21 комфорт 1018.2 1018.0
18 10.12 СЗ 3-3
{4}
н/о н/о +17.6 +14.9 84 +18 +18 1018.9 1019.0
21 10.12 С 5 н/о н/о +18.3 +12.7 70 +18 +18 1019.1 1019.0 +17.4 +21.9
03 11.12 С 6-8
{8}
н/о н/о +15.9 +13.0 83 +15 +15 1020.7 1021.0
06 11.12 С 5-6
{9}
н/о н/о +17.2 +13.5 79 +17 +17 1022.3 1022.0
09 11.12 СЗ 6-8
{8}
н/о н/о +19.6 +13.4 67 +21 +21 комфорт 1021.2 1021.0
12 11.12 С 6-8
{9}
н/о н/о +21.5 +11.6 53 +24 +24 комфорт 1020.0 1020.0
15 11.12 С 5-6
{8}
н/о н/о +19.4 +13.3 68 +21 +21 комфорт 1020.8 1021.0
18 11.12 СЗ 5-6
{8}
н/о н/о +17.3 +11.5 69 +17 +17 1021.4 1021.0

 

Местоположение метеостанции Failaka Island (Кувейт): широта 29.47 долгота 48.28 высота над уровнем моря 5 м.

В архиве по умолчанию представлена погода в Failaka Island за последнюю неделю. Архивные данные за месяц целиком и за предыдущие месяцы, начиная с января 2011 года, Вы можете получить, выбрав интересующий диапазон дат из раскрывающегося списка и нажав кнопку "Ввод!".


*Определитесь, кто Вы:
робот инопланетянин человек

Внимание! Время в таблицах - всемирное. Для получения местного времени необходимо прибавить поправку, которая в Failaka Island равна 3 ч.

Смотрите также архив погоды в соседних городах и на ближайших метеорологических станциях:

Погода в Al-Shuaiba (Кувейт) (22 км)
Погода в Kuwait City (Кувейт) (27 км)
Погода в Bubiyan (Кувейт) (35 км)
Погода в Experimental Farm (Кувейт) (39 км)
Погода в Kuwait (Кувейт) (41 км)
Погода в Sabriyah (Кувейт) (52 км)
Погода в Sulaibiya (Кувейт) (59 км)
Погода в Fao (Ирак) (61 км)
Погода в Jahra (Кувейт) (61 км)
Погода в Juluiah Port (Кувейт) (67 км)

Пояснения к столбцам:

Ветер - указаны скорость ветра в м/с - средняя за 10 мин, порывы в срок и между сроками (в фигурных скобках) и направление, откуда дует ветер: С - северный, СВ - северо-восточный, В - восточный, ЮВ - юго-восточный, Ю - южный, ЮЗ - юго-западный, З - западный, СЗ - северо-западный.
Видимость - горизонтальная дальность видимости в метрах или километрах. При видимости от 1 до 10 км при отсутствии осадков обычно наблюдается дымка, при ухудшении видимости до 1 км и менее - туман. В сухую погоду видимость может ухудшаться дымом, пылью или мглою.
Явления - указаны атмосферные явления, наблюдавшиеся в срок или в последний час перед сроком; фигурными скобками обозначены явления, наблюдавшиеся между сроками (за 1-3 часа до срока); квадратными скобками обозначены град или гололедные отложения с указанием их диаметра в мм.
Облачность - указаны через наклонную черту общая и нижняя облачность в баллах и высота нижней границы облаков в метрах; квадратными скобками обозначены формы облаков: Ci - перистые, Cs - перисто-слоистые, Cc - перисто-кучевые, Ac - высококучевые, As - высокослоистые, Sc - слоисто-кучевые, Ns - слоисто-дождевые, Cu - кучевые, Cb - кучево-дождевые. Подробнее классификацию облаков см. в Атласе облаков (PDF).
T - Температура воздуха - температура, измеренная на высоте 2 м над землей.
Td - Температура точки росы - температура, при понижении до которой содержащийся в воздухе водяной пар достигнет насыщения.
f - Относительная влажность воздуха - влажноcть воздуха, измеренная на высоте 2 м над землей.
Te - Эффективная температура - температура, которую ощущает одетый по сезону человек в тени. Характеристика душности погоды. При расчете учитывается влияние влажности воздуха и скорости ветра на теплоощущения человека.
Tes - Эффективная температура на солнце - температура, которую ощущает человек, с поправкой на солнечный нагрев. Характеристика знойности погоды. Зависит от высоты солнца над горизонтом, облачности и скорости ветра. Ночью, в пасмурную погоду, а также при ветре 12 м/с и более поправка равна нулю.
P - Атмосферное давление - приведенное к уровню моря атмосферное давление.
Po - Атмосферное давление - измеренное на уровне метеостанции атмосферное давление.
Tmin - Минимальная температура - минимум температуры воздуха на высоте 2 м над землей.
Tmax - Максимальная температура - максимум температуры воздуха на высоте 2 м над землей.
R - Количество осадков - Количество выпавших осадков за период времени, мм. При наведении курсора мыши на число - период времени, за который выпало указанное количество осадков.
R24 - Количество осадков - Количество выпавших осадков за 24 часа, мм.
S - Снежный покров - Высота снежного покрова, см. При наведении курсора мыши на число - состояние снежного покрова и степень покрытия местности в баллах.